Regional Weather Roundup
Issued by NWS Little Rock, AR

Home | Current Version | Previous Version | Graphics & Text | Print | Product List | Glossary On
Versions: 1 2 3 4 5 6 7 8 9 10 11 12 13 14 15 16 17 18 19 20 21 22 23 24 25 26 27 28 29 30 31 32 33 34 35 36 37 38 39 40 41 42 43 44 45 46 47 48 49 50
000
ASUS44 KLZK 171705
RWRLZK

WEATHER ROUNDUP FOR ARKANSAS
NATIONAL WEATHER SERVICE LITTLE ROCK AR
1200 PM CDT WED SEP 17 2014

NOTE: "FAIR" INDICATES FEW OR NO CLOUDS BELOW 12,000 FEET WITH NO
SIGNIFICANT WEATHER AND/OR OBSTRUCTIONS TO VISIBILITY.

ARZ001-003-010-029-171800-
NORTHWEST ARKANSAS

CITY           SKY/WX    TMP DP  RH WIND       PRES   REMARKS
FAYETTEVILLE   SUNNY     80  71  74 SW12      29.98F
FORT SMITH     MOSUNNY   77  68  73 NE9       29.97F HAZE
HARRISON       CLOUDY    68  66  93 SE10      30.01F FOG
ROGERS         PTSUNNY   81  70  69 SW14G26   29.98F
HIGHFILL       MOSUNNY   81  70  69 W14G21    29.97F
SPRINGDALE     MOSUNNY   81  70  69 SW15      29.99F
$$

ARZ004-005-016-171800-
NORTH CENTRAL ARKANSAS

CITY           SKY/WX    TMP DP  RH WIND       PRES   REMARKS
MTN HOME       CLOUDY    62  61  96 SE7       30.01F
$$

ARZ040-041-171800-
WEST CENTRAL ARKANSAS

CITY           SKY/WX    TMP DP  RH WIND       PRES   REMARKS
MENA           NOT AVBL
MOUNT IDA      SUNNY     79  69  71 CALM      29.98F
$$

ARZ009-017-025-026-028-171800-
NORTHEAST ARKANSAS

CITY           SKY/WX    TMP DP  RH WIND       PRES   REMARKS
JONESBORO      CLOUDY    65  58  78 NE3       30.03F
BLYTHEVILLE    CLOUDY    68  59  73 E6        30.03F
$$

ARZ022-023-033-042-044-171800-
CENTRAL ARKANSAS

CITY           SKY/WX    TMP DP  RH WIND       PRES   REMARKS
LITTLE ROCK    PTSUNNY   78  65  63 E5        30.01F
N LITTLE ROCK  PTSUNNY   76  68  75 S7        30.01F
JACKSONVILLE   PTSUNNY   77  66  68 VRB2      30.01F
HOT SPRINGS    MOSUNNY   77  68  73 W5        30.01F
RUSSELLVILLE     N/A    N/A N/A N/A MISG      30.00F
$$

ARZ036-171800-
EAST ARKANSAS

CITY           SKY/WX    TMP DP  RH WIND       PRES   REMARKS
WEST MEMPHIS   CLOUDY    71  61  70 E6        30.02F
$$

ARZ050-053-066-070-073-171800-
SOUTHWEST ARKANSAS

CITY           SKY/WX    TMP DP  RH WIND       PRES   REMARKS
$$

ARZ056-057-069-171800-
SOUTHEAST ARKANSAS

CITY           SKY/WX    TMP DP  RH WIND       PRES   REMARKS
PINE BLUFF     PTSUNNY   81  67  62 S5        30.00F
MONTICELLO     SUNNY     84  69  60 VRB3      30.00S HX  88

$$





USA.gov is the U.S. government's official web portal to all federal, state and local government web resources and services.